When you browse on this site, cookies collect data to enhance your experience and personalize the content and advertising you see.
Visit our Privacy Policy to learn more. By continuing to use the site, you agree to this use of cookies and data.
  • In Deutschland
  • Länderverzeichnis
  • Für 7 Tage
  • Wassertemperatur
  • Wetterkarte
  • Widgets
  • user-avatar
    Anmelden

    Stündliche Wetter Dalniy

    Heute, 24 Februar, Montag

    Zeit Temperatur Niederschläge Wind Luftdruck Luftfeuchtigkeit
    00:00 -8°C° 0 mm 3 m/S 749 mmHg 94%
    01:00 -9°C° 0 mm 3 m/S 748 mmHg 93%
    02:00 -9°C° 0 mm 3 m/S 748 mmHg 93%
    03:00 -11°C° 0 mm 4 m/S 747 mmHg 93%
    04:00 -12°C° 0 mm 3 m/S 747 mmHg 95%
    05:00 -11°C° 0 mm 4 m/S 746 mmHg 92%
    06:00 -12°C° 0 mm 5 m/S 746 mmHg 89%
    07:00 -12°C° 0 mm 5 m/S 745 mmHg 86%
    08:00 -12°C° 0 mm 5 m/S 744 mmHg 86%
    09:00 -11°C° 0 mm 6 m/S 744 mmHg 87%
    10:00 -11°C° 0 mm 6 m/S 743 mmHg 87%
    11:00 -10°C° 0 mm 6 m/S 743 mmHg 87%
    12:00 -9°C° 0 mm 6 m/S 742 mmHg 87%
    13:00 -9°C° 0 mm 7 m/S 742 mmHg 87%
    14:00 -9°C° 0 mm 7 m/S 741 mmHg 88%
    15:00 -9°C° 0 mm 6 m/S 741 mmHg 89%
    16:00 -9°C° 0 mm 6 m/S 741 mmHg 90%
    17:00 -9°C° 0.2 mm 6 m/S 740 mmHg 91%
    18:00 -9°C° 0.2 mm 6 m/S 740 mmHg 91%
    19:00 -10°C° 0.2 mm 6 m/S 740 mmHg 92%
    20:00 -8°C° 0.1 mm 5 m/S 739 mmHg 92%
    21:00 -8°C° 0.1 mm 5 m/S 739 mmHg 91%
    22:00 -8°C° 0.1 mm 5 m/S 739 mmHg 90%
    23:00 -8°C° 0.1 mm 4 m/S 739 mmHg 91%

    Morgen, 25 Februar, Dienstag

    Zeit Temperatur Niederschläge Wind Luftdruck Luftfeuchtigkeit
    00:00 -8°C° 0.1 mm 4 m/S 739 mmHg 91%
    01:00 -7°C° 0.1 mm 4 m/S 739 mmHg 92%
    02:00 -6°C° 0 mm 3 m/S 739 mmHg 92%
    03:00 -7°C° 0 mm 3 m/S 740 mmHg 92%
    04:00 -7°C° 0 mm 3 m/S 740 mmHg 91%
    05:00 -7°C° 0 mm 3 m/S 741 mmHg 92%
    06:00 -8°C° 0 mm 3 m/S 741 mmHg 92%
    07:00 -8°C° 0 mm 3 m/S 741 mmHg 93%
    08:00 -7°C° 0 mm 3 m/S 741 mmHg 91%
    09:00 -5°C° 0 mm 3 m/S 742 mmHg 90%
    10:00 -4°C° 0 mm 3 m/S 742 mmHg 89%
    11:00 -2°C° 0 mm 3 m/S 742 mmHg 88%
    12:00 -2°C° 0 mm 3 m/S 742 mmHg 88%
    13:00 -1°C° 0 mm 3 m/S 742 mmHg 88%
    14:00 -1°C° 0 mm 3 m/S 742 mmHg 89%
    15:00 -2°C° 0 mm 3 m/S 742 mmHg 89%
    16:00 -2°C° 0 mm 3 m/S 742 mmHg 90%
    17:00 -4°C° 0 mm 3 m/S 742 mmHg 92%
    18:00 -5°C° 0 mm 3 m/S 742 mmHg 94%
    19:00 -6°C° 0 mm 3 m/S 742 mmHg 95%
    20:00 -7°C° 0 mm 4 m/S 742 mmHg 96%
    21:00 -7°C° 0 mm 4 m/S 741 mmHg 96%
    22:00 -7°C° 0 mm 4 m/S 741 mmHg 96%
    23:00 -7°C° 0.1 mm 4 m/S 741 mmHg 95%

    übermorgen, 26 Februar, Mittwoch

    Zeit Temperatur Niederschläge Wind Luftdruck Luftfeuchtigkeit
    00:00 -7°C° 0.1 mm 4 m/S 740 mmHg 95%
    01:00 -5°C° 0.1 mm 4 m/S 739 mmHg 94%
    02:00 -7°C° 0.1 mm 4 m/S 739 mmHg 94%
    03:00 -7°C° 0.1 mm 4 m/S 738 mmHg 93%
    04:00 -8°C° 0.1 mm 4 m/S 738 mmHg 93%
    05:00 -7°C° 0 mm 4 m/S 737 mmHg 93%
    06:00 -7°C° 0 mm 4 m/S 736 mmHg 93%
    07:00 -5°C° 0 mm 4 m/S 735 mmHg 93%
    08:00 -5°C° 0 mm 4 m/S 734 mmHg 93%
    09:00 -5°C° 0 mm 5 m/S 734 mmHg 92%
    10:00 -4°C° 0 mm 5 m/S 733 mmHg 92%
    11:00 -4°C° 0.7 mm 5 m/S 732 mmHg 93%
    12:00 -4°C° 0.7 mm 5 m/S 731 mmHg 95%
    13:00 -4°C° 0.7 mm 5 m/S 730 mmHg 96%
    14:00 -4°C° 1.1 mm 5 m/S 729 mmHg 96%
    15:00 -3°C° 1.1 mm 4 m/S 729 mmHg 96%
    16:00 -4°C° 1.1 mm 3 m/S 728 mmHg 96%
    17:00 -3°C° 0.2 mm 2 m/S 728 mmHg 97%
    18:00 -4°C° 0.2 mm 2 m/S 728 mmHg 97%
    19:00 -2°C° 0.2 mm 1 m/S 727 mmHg 98%
    20:00 -3°C° 0 mm 1 m/S 727 mmHg 97%
    21:00 -3°C° 0 mm 1 m/S 727 mmHg 97%
    22:00 -4°C° 0 mm 1 m/S 727 mmHg 97%
    23:00 -5°C° 0 mm 2 m/S 728 mmHg 96%

    27 Februar, Donnerstag

    Zeit Temperatur Niederschläge Wind Luftdruck Luftfeuchtigkeit
    00:00 -5°C° 0 mm 2 m/S 728 mmHg 95%
    01:00 -6°C° 0 mm 3 m/S 728 mmHg 94%
    02:00 -5°C° 0 mm 4 m/S 729 mmHg 93%
    03:00 -5°C° 0 mm 4 m/S 730 mmHg 91%
    04:00 -5°C° 0 mm 5 m/S 731 mmHg 90%
    05:00 -5°C° 0 mm 5 m/S 732 mmHg 87%
    06:00 -5°C° 0 mm 5 m/S 733 mmHg 85%
    07:00 -5°C° 0 mm 6 m/S 734 mmHg 83%
    08:00 -5°C° 0 mm 5 m/S 734 mmHg 81%
    09:00 -5°C° 0 mm 5 m/S 735 mmHg 80%
    10:00 -5°C° 0 mm 5 m/S 736 mmHg 78%
    11:00 -5°C° 0 mm 5 m/S 736 mmHg 80%
    12:00 -4°C° 0 mm 5 m/S 737 mmHg 81%
    13:00 -2°C° 0 mm 5 m/S 737 mmHg 82%
    14:00 -2°C° 0 mm 5 m/S 738 mmHg 83%
    15:00 -2°C° 0 mm 4 m/S 738 mmHg 84%
    16:00 -2°C° 0 mm 4 m/S 738 mmHg 85%
    17:00 -2°C° 0 mm 4 m/S 739 mmHg 86%
    18:00 -2°C° 0 mm 4 m/S 740 mmHg 86%
    19:00 -3°C° 0 mm 4 m/S 740 mmHg 87%
    20:00 -2°C° 0 mm 4 m/S 741 mmHg 87%
    21:00 -2°C° 0 mm 4 m/S 741 mmHg 88%
    22:00 -2°C° 0 mm 4 m/S 741 mmHg 88%
    23:00 0°C° 0 mm 3 m/S 742 mmHg 90%

    28 Februar, Freitag

    Zeit Temperatur Niederschläge Wind Luftdruck Luftfeuchtigkeit
    00:00 0°C° 0 mm 3 m/S 742 mmHg 91%
    01:00 0°C° 0 mm 3 m/S 742 mmHg 92%
    02:00 -1°C° 0 mm 3 m/S 742 mmHg 92%
    03:00 -1°C° 0 mm 3 m/S 742 mmHg 91%
    04:00 -2°C° 0 mm 3 m/S 742 mmHg 90%
    05:00 -2°C° 0 mm 3 m/S 742 mmHg 90%
    06:00 -3°C° 0 mm 4 m/S 742 mmHg 91%
    07:00 -3°C° 0 mm 4 m/S 742 mmHg 91%
    08:00 -2°C° 0.2 mm 4 m/S 742 mmHg 91%
    09:00 -2°C° 0.2 mm 4 m/S 742 mmHg 90%
    10:00 -1°C° 0.2 mm 4 m/S 742 mmHg 90%
    11:00 -1°C° 0 mm 4 m/S 743 mmHg 91%
    12:00 0°C° 0 mm 4 m/S 743 mmHg 91%
    13:00 0°C° 0 mm 4 m/S 743 mmHg 92%
    14:00 0°C° 0 mm 4 m/S 744 mmHg 92%
    15:00 0°C° 0 mm 4 m/S 744 mmHg 91%
    16:00 0°C° 0 mm 4 m/S 744 mmHg 91%
    17:00 0°C° 0 mm 3 m/S 745 mmHg 91%
    18:00 -1°C° 0 mm 2 m/S 745 mmHg 91%
    19:00 -2°C° 0 mm 2 m/S 745 mmHg 91%
    20:00 -2°C° 0 mm 2 m/S 746 mmHg 91%
    21:00 -2°C° 0 mm 2 m/S 746 mmHg 91%
    22:00 -4°C° 0 mm 3 m/S 746 mmHg 91%
    23:00 -4°C° 0 mm 3 m/S 746 mmHg 90%

    29 Februar, Samstag

    Zeit Temperatur Niederschläge Wind Luftdruck Luftfeuchtigkeit
    00:00 -4°C° 0 mm 3 m/S 746 mmHg 89%
    01:00 -4°C° 0 mm 3 m/S 746 mmHg 87%
    02:00 -4°C° 0 mm 3 m/S 746 mmHg 87%
    03:00 -4°C° 0 mm 3 m/S 746 mmHg 86%
    04:00 -4°C° 0 mm 3 m/S 746 mmHg 85%
    05:00 -4°C° 0 mm 3 m/S 746 mmHg 85%
    06:00 -5°C° 0 mm 3 m/S 746 mmHg 85%
    07:00 -5°C° 0 mm 3 m/S 746 mmHg 85%
    08:00 -4°C° 0 mm 4 m/S 746 mmHg 81%
    09:00 -4°C° 0 mm 5 m/S 746 mmHg 76%
    10:00 -2°C° 0 mm 5 m/S 745 mmHg 72%
    11:00 -2°C° 0 mm 6 m/S 745 mmHg 70%
    12:00 -2°C° 0 mm 6 m/S 745 mmHg 68%
    13:00 -2°C° 0 mm 6 m/S 745 mmHg 67%
    14:00 -2°C° 0 mm 6 m/S 745 mmHg 68%
    15:00 -3°C° 0 mm 6 m/S 745 mmHg 70%
    16:00 -3°C° 0 mm 6 m/S 745 mmHg 72%
    17:00 -4°C° 0 mm 5 m/S 745 mmHg 75%
    18:00 -5°C° 0 mm 5 m/S 745 mmHg 78%
    19:00 -6°C° 0 mm 5 m/S 745 mmHg 81%
    20:00 -6°C° 0 mm 5 m/S 745 mmHg 83%
    21:00 -7°C° 0 mm 5 m/S 745 mmHg 85%
    22:00 -7°C° 0 mm 4 m/S 745 mmHg 86%
    23:00 -8°C° 0 mm 4 m/S 744 mmHg 88%
    Mehr zeigen